Home > Time Zones > World Clock > Weather > Italy > Milan > Past weeks

Flag for Italy Weather past 2 weeks in Milan, Italy

Now
81 °F

Passing clouds.


Feels Like: 79 °F
Forecast: 56 / 69 °F
Wind: 6 mph from North

Location: Milan / Linate

Current Time: Sep 22, 2014 at 6:37:28 PM

Latest Report: Sep 22, 2014 at 5:50 PM


Visibility: N/A

Pressure: 29.74 "Hg

Humidity: 20%

Dew point: 36 °F

Location of MilanLocation

Historic Weather in Milan — Graph

°F

Milan temperature yesterday

Maximum temperature yesterday: 79 °F (at 2:20 PM)
Minimum temperature yesterday: 59 °F (at 7:20 AM)
Average temperature yesterday: 70 °F

Past Weeks' High & Low Weather Summary

 TemperatureHumidityPressure
High84 °F (Sep 8, 3:50 PM)100% (Sep 10, 2:50 AM)30.12 "Hg (Sep 10, 2:50 AM)
Low55 °F (Sep 13, 6:20 AM)14% (Sep 22, 2:50 PM)29.74 "Hg (Sep 22, 5:20 PM)
Average69 °F75%29.96 "Hg
* Reported Sep 7 5:20 PM — Sep 22 5:20 PM, Milan, Weather by CustomWeather, © 2014

Note: Actual official high and low records may vary slightly from our data, if they occured in-between our weather recording intervals... More about our weather records

Advertising

Milan weather history for previous 24 hours

 ConditionsComfort  
Time TempWeatherWind HumidityBarometerVisibility
5:20 PM
Sep 22
82 °FPassing clouds.7 mph19%29.74 "HgN/A
4:50 PM82 °FPassing clouds.7 mph19%29.77 "HgN/A
4:20 PM82 °FPassing clouds.8 mph16%29.77 "HgN/A
3:50 PM82 °FPassing clouds.9 mph19%29.77 "HgN/A
3:20 PM82 °FPassing clouds.10 mph15%29.77 "HgN/A
2:50 PM84 °FPassing clouds.9 mph14%29.77 "HgN/A
2:20 PM82 °FPassing clouds.10 mph21%29.80 "HgN/A
1:50 PM82 °FPassing clouds.10 mph21%29.80 "HgN/A
1:20 PM81 °FPassing clouds.8 mph24%29.80 "HgN/A
12:50 PM81 °FPassing clouds.8 mph24%29.83 "HgN/A
12:20 PM79 °FSunny.3 mph45%29.83 "Hg10 mi
11:50 AM79 °FSunny.2 mph39%29.83 "Hg10 mi
11:20 AM75 °FSunny.3 mph50%29.83 "Hg10 mi
10:50 AM73 °FSunny.2 mph53%29.86 "Hg10 mi
10:20 AM72 °FPassing clouds.3 mph61%29.86 "HgN/A
9:50 AM70 °FSunny.2 mph64%29.86 "Hg10 mi
9:20 AM66 °FSunny.3 mph73%29.83 "Hg10 mi
8:50 AM64 °FPassing clouds.3 mph78%29.83 "HgN/A
8:20 AM61 °FPassing clouds.6 mph88%29.83 "HgN/A
7:50 AM59 °FPassing clouds.3 mph94%29.83 "HgN/A
7:20 AM59 °FClear.6 mph94%29.83 "Hg10 mi
6:50 AM59 °FClear.5 mph94%29.83 "Hg10 mi
6:20 AM57 °FClear.3 mph100%29.80 "Hg10 mi
5:50 AM59 °FClear.2 mph94%29.80 "Hg10 mi
5:20 AM61 °FClear.2 mph88%29.80 "Hg10 mi
4:50 AM61 °FClear.2 mph94%29.80 "Hg10 mi
4:20 AM63 °FPassing clouds.3 mph83%29.80 "HgN/A
3:50 AM64 °FClear.2 mph88%29.83 "Hg10 mi
3:20 AM64 °FClear.2 mph94%29.83 "Hg10 mi
2:50 AM64 °FClear.2 mph100%29.86 "Hg10 mi
2:20 AM66 °FClear.5 mph94%29.86 "Hg10 mi
1:50 AM66 °FClear.3 mph88%29.86 "Hg10 mi
1:20 AM68 °FPassing clouds.3 mph83%29.86 "HgN/A
12:50 AM68 °FClear.2 mph88%29.86 "Hg10 mi
12:20 AM68 °FClear.3 mph88%29.86 "Hg10 mi
11:50 PM
Sep 21
70 °FPassing clouds.6 mph83%29.86 "HgN/A
11:20 PM70 °FClear.6 mph83%29.86 "Hg10 mi
10:50 PM68 °FPassing clouds.3 mph94%29.86 "HgN/A
10:20 PM70 °FClear.2 mph83%29.86 "Hg10 mi
9:50 PM70 °FPassing clouds.3 mph83%29.86 "HgN/A
9:20 PM70 °FPassing clouds.3 mph83%29.86 "HgN/A
8:50 PM70 °FPassing clouds.3 mph83%29.89 "HgN/A
8:20 PM70 °FPassing clouds.2 mph83%29.89 "HgN/A
7:50 PM72 °FPassing clouds.3 mph78%29.86 "HgN/A
7:20 PM75 °FPassing clouds.2 mph74%29.86 "HgN/A
6:50 PM77 °FPassing clouds.6 mph65%29.86 "HgN/A
6:20 PM77 °FScattered clouds.6 mph65%29.86 "HgN/A
Weather by CustomWeather, © 2014

See weather overviewHow to use our weather pages